STARLINK-3742, 52303

Orbit data source: Space-Track

STARLINK-3742, 52303 is a payload satellite owned by SpaceX/Seattle (US) in LEO that was launched on Thu, 21 Apr 2022 UTC via an FALCON 9 launch vehicle from the Air Force Eastern Test Range (AFETR). Payload-class satellites include a variety of spacecraft equipped with specific instruments for various scientific and technological missions. These include communications satellites like Starlink; space stations such as the ISS; scientific satellites like the Hubble; Earth observation satellites from companies like Planet Labs, Umbra, and HawkEye 360; GPS; miniature CubeSats for education and research; and military/defense satellites.

Loading next visibility...
Identifier
52303, 2022-041AU
Orbit
LEO
Country
Flag of USUS
Related business
Manufacturer
SpaceX/Seattle
Mission
Operational Commercial Communications
Bus & Motor
STARLINK, Unknown motor
Mass
297 kg wet, ~275 kg dry
Launch date (UTC)
2022-04-21 (4 years ago)
Launch vehicle
FALCON 9
Launch site
Air Force Eastern Test Range (AFETR)
Object type
Payload
Rocket body
Debris
Shape & HBR
Box + 1 Pan, 10.1 m
Radar Cross Section
11.087 m², Large (>1 m²)

Expand to show TLE details & history
Last TLE update: 1 day ago

TLE from 1 day ago
0 STARLINK-3742
1 52303U 22041AU  26235.89448310  .00000569  00000-0  28637-4 0  9997
2 52303  53.1608  60.7620 0001229 101.8257 258.2884 15.33547017241074
Epoch: 2026-08-23T21:28Z
TLE epoch observation values (Epoch: 2026-08-23T21:28:03.339Z)
Latitude
0.00003°
Longitude
126.56412°
Altitude
466.312 km
Speed
7.634 km/s
True Right ascension
04h 03m 02s
True Declination
0° 00' 00"
Sunlit
Object was in daylight at epoch
Visualization orbit readout
Latitude
Unknown
Longitude
Unknown
Altitude
Unknown
Speed
Unknown
Apparent Right ascension
Unknown
Apparent Declination
Unknown
Sunlit
N/A
Visualization observer readout
Local Sidereal Time
18:15:48
Azimuth
Unknown
Elevation
Unknown
Doppler factor
Unknown
Orbital elements
Apogee altitude
466.337 km
Perigee altitude
464.655 km
Semi-major axis
6,843.633 km
Eccentricity
0.00012
Inclination
53.1608°
RAAN
60.762°
Arg. of periapsis
101.8257°
True anomaly
258.27461°
Mean anomaly
258.2884°
Eccentric anomaly
258.28151°
Mean motion
3.83366 °/min
Orbital period
93.91 mins
BSTAR
0.000028637
Loading maneuver chart data...
Computing Atmospheric mass density...
Loading historical data...
Loading historical data...
Loading historical data...
Loading historical data...
Loading historical data...
Loading historical data...
Loading historical data...

Documentation

Showing up to 5 results
|